Weather History for KLNP - February, 2014

Change the Weather History Date:

Thursday, February 27, 2014

  Actual Average Record
Temperature  
Mean Temperature 24 °F -  
Max Temperature 35 °F 46 °F 64 °F (1997)
Min Temperature 14 °F 30 °F 8 °F (2002)
Degree Days  
Heating Degree Days 40    
Moisture  
Dew Point 3 °F    
Average Humidity 41    
Maximum Humidity 63    
Minimum Humidity 18    
Precipitation  
Precipitation 0.00 in - - ()
Sea Level Pressure  
Sea Level Pressure 29.85 in    
Wind  
Wind Speed 8 mph (West)    
Max Wind Speed 20 mph    
Max Gust Speed 26 mph    
Visibility 10 miles    
Events      
Averages and records for this station are not official NWS values.
T = Trace of Precipitation, MM = Missing Value Source: NWS Daily Summary

Daily Weather History Graph

Daily Weather History Graph

Search for Another Location

Airport or City:

Trip Planner

Search our weather history database for the weather conditions in past years. The results will help you decide how hot, cold, wet, or windy it might be!

Date:

Astronomy

Feb. 27, 2014 Rise Set
Actual Time 7:03 AM EST 6:22 PM EST
Civil Twilight 6:37 AM EST 6:48 PM EST
Nautical Twilight 6:07 AM EST 7:18 PM EST
Astronomical Twilight 5:37 AM EST 7:48 PM EST
Moon 5:33 AM EST (2/27) 4:47 PM EST (2/27)
Length of Visible Light 12h 10m
Length of Day
11h 18m
Waning Crescent, 4% of the Moon is Illuminated
Feb 27
Waning Crescent
Mar 1
New
Mar 8
First Quarter
Mar 16
Full
Mar 23
Last Quarter

Hourly Weather History & Observations

Time (EST) Temp. Windchill Dew Point Humidity Pressure Visibility Wind Dir Wind Speed Gust Speed Precip Events Conditions
12:15 AM 17.6 °F 9.3 °F 6.8 °F 63% 29.81 in 10.0 mi SW 5.8 mph - N/A   Clear
12:35 AM 19.4 °F 9.5 °F 8.6 °F 63% 29.81 in 10.0 mi SW 8.1 mph - N/A   Clear
12:55 AM 19.4 °F 9.5 °F 8.6 °F 63% 29.80 in 10.0 mi SW 8.1 mph - N/A   Clear
1:15 AM 17.6 °F 7.3 °F 6.8 °F 63% 29.80 in 10.0 mi SW 8.1 mph - N/A   Clear
1:35 AM 19.4 °F 8.6 °F 6.8 °F 58% 29.79 in 10.0 mi SW 9.2 mph - N/A   Clear
1:55 AM 19.4 °F 7.9 °F 6.8 °F 58% 29.78 in 10.0 mi SW 10.4 mph - N/A   Clear
2:15 AM 19.4 °F 7.2 °F 6.8 °F 58% 29.78 in 10.0 mi SW 11.5 mph - N/A   Clear
2:35 AM 19.4 °F 7.9 °F 5.0 °F 54% 29.78 in 10.0 mi SW 10.4 mph - N/A   Clear
2:55 AM 19.4 °F 7.9 °F 6.8 °F 58% 29.78 in 10.0 mi WSW 10.4 mph - N/A   Clear
3:15 AM 19.4 °F 9.5 °F 6.8 °F 58% 29.78 in 10.0 mi WSW 8.1 mph - N/A   Clear
3:35 AM 19.4 °F 10.4 °F 5.0 °F 54% 29.78 in 10.0 mi WSW 6.9 mph - N/A   Clear
3:55 AM 17.6 °F 8.2 °F 5.0 °F 58% 29.78 in 10.0 mi West 6.9 mph - N/A   Clear
4:15 AM 17.6 °F 7.3 °F 5.0 °F 58% 29.78 in 10.0 mi West 8.1 mph - N/A   Clear
4:35 AM 17.6 °F 7.3 °F 3.2 °F 53% 29.78 in 10.0 mi West 8.1 mph - N/A   Clear
4:55 AM 17.6 °F 9.3 °F 3.2 °F 53% 29.79 in 10.0 mi WSW 5.8 mph - N/A   Clear
5:15 AM 17.6 °F 7.3 °F -0.4 °F 45% 29.79 in 10.0 mi West 8.1 mph - N/A   Clear
5:35 AM 17.6 °F 6.4 °F -4.0 °F 38% 29.80 in 10.0 mi West 9.2 mph - N/A   Clear
5:55 AM 17.6 °F 8.2 °F -5.8 °F 35% 29.80 in 10.0 mi West 6.9 mph - N/A   Clear
6:15 AM 17.6 °F 9.3 °F -4.0 °F 38% 29.80 in 10.0 mi WSW 5.8 mph - N/A   Clear
6:35 AM 15.8 °F 7.2 °F -0.4 °F 49% 29.80 in 10.0 mi WSW 5.8 mph - N/A   Clear
6:55 AM 15.8 °F 10.2 °F -0.4 °F 49% 29.81 in 10.0 mi SW 3.5 mph - N/A   Clear
7:15 AM 14.0 °F 8.2 °F 1.4 °F 57% 29.81 in 10.0 mi South 3.5 mph - N/A   Clear
7:35 AM 15.8 °F 8.6 °F 1.4 °F 53% 29.81 in 10.0 mi South 4.6 mph - N/A   Clear
7:55 AM 15.8 °F - 1.4 °F 53% 29.82 in 10.0 mi Calm Calm - N/A   Clear
8:15 AM 17.6 °F 10.7 °F 1.4 °F 49% 29.82 in 10.0 mi SSW 4.6 mph - N/A   Clear
8:35 AM 19.4 °F 10.4 °F 1.4 °F 46% 29.83 in 10.0 mi SW 6.9 mph - N/A   Clear
8:55 AM 19.4 °F 7.9 °F 3.2 °F 49% 29.83 in 10.0 mi SSW 10.4 mph - N/A   Clear
9:15 AM 21.2 °F 10.1 °F 3.2 °F 46% 29.84 in 10.0 mi SSW 10.4 mph - N/A   Clear
9:35 AM 23.0 °F 13.1 °F 3.2 °F 43% 29.84 in 10.0 mi SSW 9.2 mph - N/A   Clear
9:55 AM 23.0 °F 12.4 °F 3.2 °F 43% 29.84 in 10.0 mi SW 10.4 mph 16.1 mph N/A   Clear
10:15 AM 24.8 °F 13.4 °F 3.2 °F 40% 29.83 in 10.0 mi SW 12.7 mph 17.3 mph N/A   Clear
10:35 AM 26.6 °F 16.8 °F 3.2 °F 37% 29.84 in 10.0 mi SW 10.4 mph 17.3 mph N/A   Clear
10:55 AM 26.6 °F 16.2 °F 3.2 °F 37% 29.84 in 10.0 mi SSW 11.5 mph 17.3 mph N/A   Clear
11:15 AM 28.4 °F 18.5 °F 3.2 °F 34% 29.83 in 10.0 mi SSW 11.5 mph - N/A   Clear
11:35 AM 30.2 °F 20.8 °F 5.0 °F 34% 29.83 in 10.0 mi SW 11.5 mph 18.4 mph N/A   Clear
11:55 AM 30.2 °F 20.2 °F 3.2 °F 32% 29.83 in 10.0 mi SW 12.7 mph 18.4 mph N/A   Clear
12:15 PM 32.0 °F 24.8 °F 5.0 °F 32% 29.82 in 10.0 mi SW 8.1 mph - N/A   Clear
12:35 PM 32.0 °F 22.1 °F 1.4 °F 27% 29.83 in 10.0 mi West 13.8 mph 26.5 mph N/A   Clear
12:55 PM 32.0 °F 21.6 °F -0.4 °F 25% 29.83 in 10.0 mi West 15.0 mph 25.3 mph N/A   Clear
1:15 PM 33.8 °F 24.8 °F 3.2 °F 28% 29.82 in 10.0 mi WSW 12.7 mph 20.7 mph N/A   Clear
1:35 PM 33.8 °F 24.8 °F -0.4 °F 23% 29.82 in 10.0 mi WNW 12.7 mph 20.7 mph N/A   Clear
1:55 PM 35.6 °F 27.1 °F -0.4 °F 22% 29.82 in 10.0 mi West 12.7 mph 25.3 mph N/A   Clear
2:15 PM 35.6 °F 26.6 °F 1.4 °F 24% 29.82 in 10.0 mi West 13.8 mph - N/A   Clear
2:35 PM 35.6 °F 24.8 °F -0.4 °F 22% 29.82 in 10.0 mi West 19.6 mph 23.0 mph N/A   Clear
2:55 PM 35.6 °F 26.2 °F -4.0 °F 18% 29.83 in 10.0 mi WNW 15.0 mph 23.0 mph N/A   Clear
3:15 PM 35.6 °F 26.2 °F -0.4 °F 22% 29.84 in 10.0 mi WNW 15.0 mph 21.9 mph N/A   Clear
3:35 PM 35.6 °F 27.1 °F -0.4 °F 22% 29.84 in 10.0 mi WNW 12.7 mph 20.7 mph N/A   Clear
3:55 PM 35.6 °F 28.6 °F -0.4 °F 22% 29.84 in 10.0 mi West 9.2 mph 18.4 mph N/A   Clear
4:15 PM 33.8 °F 24.3 °F -0.4 °F 23% 29.85 in 10.0 mi WNW 13.8 mph - N/A   Clear
4:35 PM 33.8 °F 26.4 °F 1.4 °F 25% 29.86 in 10.0 mi NW 9.2 mph 17.3 mph N/A   Clear
4:55 PM 33.8 °F 24.8 °F 1.4 °F 25% 29.86 in 10.0 mi WNW 12.7 mph - N/A   Clear
5:15 PM 33.8 °F 25.8 °F 1.4 °F 25% 29.87 in 10.0 mi WNW 10.4 mph - N/A   Clear
5:35 PM 32.0 °F 22.5 °F -0.4 °F 25% 29.87 in 10.0 mi West 12.7 mph 16.1 mph N/A   Clear
5:55 PM 32.0 °F 24.8 °F 1.4 °F 27% 29.88 in 10.0 mi NW 8.1 mph - N/A   Clear
6:15 PM 32.0 °F 25.6 °F 1.4 °F 27% 29.89 in 10.0 mi NW 6.9 mph - N/A   Clear
6:35 PM 30.2 °F 23.4 °F 1.4 °F 29% 29.90 in 10.0 mi NW 6.9 mph - N/A   Clear
6:55 PM 30.2 °F 26.7 °F 1.4 °F 29% 29.90 in 10.0 mi NNW 3.5 mph - N/A   Clear
7:15 PM 30.2 °F 23.4 °F 3.2 °F 32% 29.91 in 10.0 mi NW 6.9 mph - N/A   Clear
7:35 PM 28.4 °F 24.6 °F 5.0 °F 37% 29.91 in 10.0 mi NNW 3.5 mph - N/A   Clear
7:55 PM 28.4 °F 22.2 °F 5.0 °F 37% 29.91 in 10.0 mi NNW 5.8 mph - N/A   Clear
8:15 PM 28.4 °F 22.2 °F 5.0 °F 37% 29.92 in 10.0 mi NNW 5.8 mph - N/A   Clear
8:35 PM 26.6 °F 21.2 °F 5.0 °F 40% 29.93 in 10.0 mi NW 4.6 mph - N/A   Clear
8:55 PM 26.6 °F 19.1 °F 5.0 °F 40% 29.93 in 10.0 mi NW 6.9 mph - N/A   Clear
9:15 PM 26.6 °F 22.6 °F 5.0 °F 40% 29.94 in 10.0 mi NW 3.5 mph - N/A   Clear
9:35 PM 26.6 °F - 6.8 °F 43% 29.95 in 10.0 mi Calm Calm - N/A   Clear
9:55 PM 26.6 °F - 5.0 °F 40% 29.96 in 10.0 mi Calm Calm - N/A   Clear
10:15 PM 24.8 °F - 5.0 °F 43% 29.96 in 10.0 mi Calm Calm - N/A   Clear
10:35 PM 24.8 °F - 6.8 °F 46% 29.96 in 10.0 mi Calm Calm - N/A   Clear
10:55 PM 24.8 °F - 6.8 °F 46% 29.97 in 10.0 mi Calm Calm - N/A   Clear
11:15 PM 24.8 °F - 5.0 °F 43% 29.97 in 10.0 mi Calm Calm - N/A   Clear
11:35 PM 23.0 °F 17.0 °F 6.8 °F 50% 29.97 in 10.0 mi NNW 4.6 mph - N/A   Clear
11:55 PM 23.0 °F 17.0 °F 5.0 °F 46% 29.97 in 10.0 mi NNW 4.6 mph - N/A   Clear